Home   Weather   Odesa   Past weeks

Flag for Ukraine Past Weather in Odesa, Ukraine — Yesterday and Last 2 Weeks

46 °F

Low clouds.

Feels Like: 42 °F
Forecast: 43 / 48 °F
Wind: 8 mph from Northeast

Location: Odesa Airport

Current Time: Oct 23, 2016 at 6:10:10 AM

Latest Report: Oct 23, 2016 at 5:30 AM

Visibility: N/A

Pressure: 30.21 "Hg

Humidity: 100%

Dew Point: 46 °F

Location of OdesaLocation

Past Weather in Odesa — Graph


Odesa Temperature Yesterday

Maximum temperature yesterday: 52 °F (at 3:00 PM)
Minimum temperature yesterday: 48 °F (at 1:30 AM)
Average temperature yesterday: 49 °F

High & Low Weather Summary for the Past Weeks

High61 °F (Oct 10, 2:30 PM)100% (Oct 8, 8:30 AM)30.63 "Hg (Oct 8, 8:30 AM)
Low36 °F (Oct 15, 1:30 AM)31% (Oct 9, 3:30 PM)29.65 "Hg (Oct 13, 2:30 AM)
Average47 °F82%30.19 "Hg
* Reported Oct 8 5:00 AM — Oct 23 5:00 AM, Odesa, Weather by CustomWeather, © 2016

Note: Actual official high and low records may vary slightly from our data, if they occured in-between our weather recording intervals... More about our weather records


Odesa Weather History for the Previous 24 Hours

Scroll right to see more
Time TempWeatherWind HumidityBarometerVisibility
5:00 AM
Sun, Oct 23
48 °FLow clouds.8 mph94%30.21 "HgN/A
4:30 AM48 °FOvercast.8 mph94%30.21 "HgN/A
4:00 AM48 °FOvercast.6 mph94%30.21 "HgN/A
3:30 AM48 °FOvercast.8 mph94%30.21 "HgN/A
3:00 AM50 °FOvercast.6 mph88%30.21 "HgN/A
2:30 AM50 °FOvercast.8 mph88%30.18 "HgN/A
2:00 AM48 °FOvercast.8 mph94%30.21 "HgN/A
1:30 AM48 °FOvercast.8 mph100%30.21 "HgN/A
1:00 AM48 °FOvercast.6 mph100%30.21 "HgN/A
12:30 AM48 °FOvercast.6 mph100%30.18 "HgN/A
12:00 AM48 °FLight rain. Fog.8 mph100%30.18 "Hg2 mi
11:30 PM
Sat, Oct 22
48 °FLight rain. Fog.8 mph100%30.18 "Hg2 mi
11:00 PM48 °FLight rain. Fog.8 mph94%30.21 "Hg2 mi
10:30 PM48 °FLight rain. Fog.10 mph94%30.18 "Hg2 mi
10:00 PM48 °FLight rain. Fog.10 mph94%30.18 "Hg2 mi
9:30 PM48 °FLight rain. Fog.10 mph94%30.18 "Hg2 mi
9:00 PM48 °FLight rain. Fog.10 mph94%30.18 "Hg1 mi
8:30 PM48 °FDrizzle. Fog.15 mph94%30.18 "Hg2 mi
8:00 PM50 °FDrizzle. Fog.15 mph88%30.18 "Hg3 mi
7:30 PM50 °FOvercast.13 mph88%30.18 "HgN/A
7:00 PM50 °FMostly cloudy.8 mph88%30.18 "HgN/A
6:30 PM52 °FOvercast.8 mph82%30.18 "HgN/A
6:00 PM52 °FOvercast.8 mph82%30.18 "HgN/A
5:30 PM52 °FOvercast.10 mph82%30.15 "HgN/A
5:00 PM52 °FOvercast.13 mph82%30.15 "HgN/A
4:30 PM52 °FOvercast.13 mph82%30.15 "HgN/A
4:00 PM52 °FOvercast.13 mph82%30.15 "HgN/A
3:30 PM52 °FOvercast.10 mph82%30.15 "HgN/A
3:00 PM52 °FOvercast.13 mph88%30.15 "HgN/A
2:30 PM50 °FOvercast.13 mph88%30.15 "HgN/A
2:00 PM50 °FOvercast.13 mph88%30.15 "HgN/A
1:30 PM50 °FOvercast.13 mph88%30.18 "HgN/A
1:00 PM50 °FOvercast.15 mph88%30.18 "HgN/A
12:30 PM50 °FOvercast.13 mph88%30.15 "HgN/A
12:00 PM50 °FOvercast.13 mph94%30.15 "HgN/A
11:30 AM50 °FLow clouds.15 mph88%30.15 "HgN/A
11:00 AM50 °FLow clouds.15 mph88%30.15 "HgN/A
10:30 AM50 °FLow clouds.13 mph88%30.15 "HgN/A
10:00 AM50 °FLow clouds.13 mph94%30.18 "HgN/A
9:30 AM50 °FLow clouds.15 mph94%30.15 "HgN/A
9:00 AM48 °FLow clouds.15 mph100%30.18 "HgN/A
8:30 AM48 °FLow clouds.15 mph94%30.15 "HgN/A
8:00 AM48 °FDrizzle. Low clouds.15 mph94%30.15 "Hg5 mi
7:30 AM48 °FDrizzle. Low clouds.17 mph100%30.15 "Hg5 mi
7:00 AM48 °FDrizzle. Fog.13 mph100%30.15 "Hg3 mi
6:30 AM48 °FDrizzle. Low clouds.13 mph100%30.15 "Hg4 mi
6:02 AM48 °FDrizzle. Fog.10 mph94%30.18 "Hg1 mi
Weather by CustomWeather, © 2016

See weather overviewHow to use our weather pages